When you browse on this site, cookies collect data to enhance your experience and personalize the content and advertising you see.
Visit our Privacy Policy to learn more. By continuing to use the site, you agree to this use of cookies and data.
  • In United Kingdom
  • List of Countries
  • For 7 days
  • Water Temperature
  • Satellite Maps
  • Weather Map
  • Weather Widgets
  • user-avatar
    Login

    Hourly Weather Aberlady

    Today, 15 December, Saturday

    Time Temperature Precipitation Wind Pressure Humidity
    00:00 -2°C° 0 mm 7 mps 758 mmHg 76%
    01:00 -2°C° 0 mm 8 mps 757 mmHg 75%
    02:00 -1°C° 0 mm 9 mps 757 mmHg 73%
    03:00 -1°C° 0 mm 9 mps 756 mmHg 72%
    04:00 -1°C° 0 mm 9 mps 756 mmHg 72%
    05:00 -1°C° 0 mm 9 mps 755 mmHg 72%
    06:00 -2°C° 0 mm 7 mps 754 mmHg 73%
    07:00 -2°C° 0 mm 8 mps 754 mmHg 72%
    08:00 -3°C° 0 mm 9 mps 754 mmHg 71%
    09:00 -3°C° 0 mm 10 mps 753 mmHg 70%
    10:00 -2°C° 0 mm 11 mps 752 mmHg 69%
    11:00 -2°C° 0 mm 11 mps 751 mmHg 69%
    12:00 -2°C° 0 mm 10 mps 749 mmHg 69%
    13:00 -2°C° 0.2 mm 11 mps 748 mmHg 72%
    14:00 -2°C° 0.2 mm 12 mps 746 mmHg 75%
    15:00 -2°C° 0.2 mm 13 mps 745 mmHg 78%
    16:00 -2°C° 2.7 mm 13 mps 744 mmHg 82%
    17:00 -2°C° 2.7 mm 13 mps 742 mmHg 86%
    18:00 -2°C° 2.7 mm 13 mps 741 mmHg 90%
    19:00 -1°C° 2.8 mm 13 mps 740 mmHg 91%
    20:00 -1°C° 2.8 mm 12 mps 739 mmHg 92%
    21:00 -1°C° 2.8 mm 12 mps 738 mmHg 93%
    22:00 -1°C° 0.4 mm 11 mps 737 mmHg 94%
    23:00 +1°C° 0.4 mm 10 mps 737 mmHg 95%

    Tomorrow, 16 December, Sunday

    Time Temperature Precipitation Wind Pressure Humidity
    00:00 +1°C° 0.4 mm 10 mps 736 mmHg 96%
    01:00 +1°C° 0.7 mm 10 mps 737 mmHg 94%
    02:00 +1°C° 0.7 mm 10 mps 737 mmHg 91%
    03:00 +1°C° 0.7 mm 10 mps 738 mmHg 89%
    04:00 +1°C° 0.2 mm 9 mps 738 mmHg 89%
    05:00 +1°C° 0.2 mm 9 mps 739 mmHg 89%
    06:00 +1°C° 0.2 mm 8 mps 740 mmHg 89%
    07:00 +2°C° 0 mm 7 mps 741 mmHg 89%
    08:00 0°C° 0 mm 7 mps 742 mmHg 90%
    09:00 +1°C° 0 mm 6 mps 744 mmHg 90%
    10:00 +1°C° 0 mm 6 mps 744 mmHg 90%
    11:00 +2°C° 0 mm 6 mps 745 mmHg 91%
    12:00 +2°C° 0 mm 5 mps 745 mmHg 92%
    13:00 +2°C° 0 mm 5 mps 746 mmHg 92%
    14:00 +3°C° 0 mm 4 mps 746 mmHg 92%
    15:00 +1°C° 0 mm 4 mps 746 mmHg 92%
    16:00 +1°C° 0 mm 4 mps 746 mmHg 93%
    17:00 +1°C° 0 mm 4 mps 747 mmHg 93%
    18:00 0°C° 0 mm 4 mps 747 mmHg 93%
    19:00 0°C° 0 mm 4 mps 747 mmHg 93%
    20:00 0°C° 0 mm 4 mps 748 mmHg 94%
    21:00 0°C° 0 mm 4 mps 748 mmHg 94%
    22:00 0°C° 0 mm 4 mps 749 mmHg 94%
    23:00 0°C° 0 mm 4 mps 749 mmHg 94%

    Day after tomorrow, 17 December, Monday

    Time Temperature Precipitation Wind Pressure Humidity
    00:00 0°C° 0 mm 4 mps 749 mmHg 94%
    01:00 0°C° 0 mm 4 mps 750 mmHg 94%
    02:00 0°C° 0 mm 4 mps 750 mmHg 94%
    03:00 0°C° 0 mm 4 mps 750 mmHg 94%
    04:00 0°C° 0 mm 4 mps 751 mmHg 94%
    05:00 0°C° 0 mm 4 mps 751 mmHg 94%
    06:00 0°C° 0 mm 4 mps 751 mmHg 94%
    07:00 0°C° 0 mm 4 mps 752 mmHg 94%
    08:00 0°C° 0 mm 4 mps 752 mmHg 94%
    09:00 +1°C° 0 mm 3 mps 752 mmHg 94%
    10:00 +1°C° 0 mm 4 mps 753 mmHg 93%
    11:00 +3°C° 0 mm 4 mps 753 mmHg 93%
    12:00 +2°C° 0 mm 5 mps 753 mmHg 92%
    13:00 +3°C° 0 mm 5 mps 752 mmHg 92%
    14:00 +3°C° 0 mm 6 mps 752 mmHg 93%
    15:00 +4°C° 0 mm 6 mps 751 mmHg 93%
    16:00 +4°C° 0.3 mm 7 mps 751 mmHg 93%
    17:00 +4°C° 0.3 mm 8 mps 751 mmHg 93%
    18:00 +4°C° 0.3 mm 8 mps 750 mmHg 93%
    19:00 +5°C° 0.2 mm 8 mps 750 mmHg 92%
    20:00 +5°C° 0.2 mm 8 mps 750 mmHg 92%
    21:00 +6°C° 0.2 mm 8 mps 749 mmHg 92%
    22:00 +6°C° 0.1 mm 8 mps 749 mmHg 91%
    23:00 +6°C° 0.1 mm 8 mps 749 mmHg 91%

    18 December, Tuesday

    Time Temperature Precipitation Wind Pressure Humidity
    00:00 +7°C° 0.1 mm 8 mps 748 mmHg 90%
    01:00 +7°C° 0.1 mm 9 mps 748 mmHg 90%
    02:00 +7°C° 0.1 mm 9 mps 747 mmHg 89%
    03:00 +7°C° 0.1 mm 9 mps 747 mmHg 89%
    04:00 +7°C° 0.1 mm 9 mps 746 mmHg 88%
    05:00 +7°C° 0.1 mm 9 mps 746 mmHg 87%
    06:00 +8°C° 0.1 mm 10 mps 745 mmHg 86%
    07:00 +8°C° 0.2 mm 10 mps 745 mmHg 85%
    08:00 +7°C° 0.2 mm 11 mps 744 mmHg 84%
    09:00 +7°C° 0.2 mm 11 mps 744 mmHg 83%
    10:00 +7°C° 0.5 mm 11 mps 743 mmHg 83%
    11:00 +7°C° 0.5 mm 11 mps 743 mmHg 83%
    12:00 +7°C° 0.5 mm 11 mps 743 mmHg 82%
    13:00 +7°C° 0.8 mm 11 mps 742 mmHg 83%
    14:00 +6°C° 0.8 mm 11 mps 741 mmHg 83%
    15:00 +6°C° 0.8 mm 11 mps 740 mmHg 84%
    16:00 +6°C° 0.8 mm 11 mps 740 mmHg 85%
    17:00 +6°C° 0.8 mm 10 mps 740 mmHg 85%
    18:00 +6°C° 0.8 mm 10 mps 740 mmHg 86%
    19:00 +6°C° 0.4 mm 9 mps 740 mmHg 88%
    20:00 +5°C° 0.4 mm 7 mps 740 mmHg 89%
    21:00 +5°C° 0.4 mm 6 mps 740 mmHg 91%
    22:00 +4°C° 0.5 mm 6 mps 740 mmHg 90%
    23:00 +5°C° 0.5 mm 5 mps 741 mmHg 89%

    19 December, Wednesday

    Time Temperature Precipitation Wind Pressure Humidity
    00:00 +5°C° 0.5 mm 5 mps 741 mmHg 88%
    01:00 +5°C° 0.2 mm 5 mps 741 mmHg 89%
    02:00 +5°C° 0.2 mm 5 mps 742 mmHg 90%
    03:00 +3°C° 0.2 mm 5 mps 742 mmHg 91%
    04:00 +3°C° 0 mm 5 mps 743 mmHg 91%
    05:00 +3°C° 0 mm 5 mps 743 mmHg 90%
    06:00 +2°C° 0 mm 5 mps 744 mmHg 90%
    07:00 +2°C° 0 mm 5 mps 745 mmHg 90%
    08:00 +2°C° 0 mm 5 mps 745 mmHg 89%
    09:00 +2°C° 0 mm 6 mps 746 mmHg 88%
    10:00 +2°C° 0 mm 6 mps 746 mmHg 85%
    11:00 +3°C° 0 mm 7 mps 746 mmHg 82%
    12:00 +4°C° 0 mm 7 mps 746 mmHg 79%
    13:00 +4°C° 0 mm 7 mps 746 mmHg 81%
    14:00 +4°C° 0 mm 6 mps 746 mmHg 82%
    15:00 +4°C° 0 mm 6 mps 746 mmHg 84%
    16:00 +4°C° 0 mm 6 mps 746 mmHg 86%
    17:00 +3°C° 0 mm 6 mps 746 mmHg 87%
    18:00 +3°C° 0 mm 6 mps 746 mmHg 89%
    19:00 +3°C° 0 mm 6 mps 746 mmHg 88%
    20:00 +3°C° 0 mm 6 mps 746 mmHg 88%
    21:00 +3°C° 0 mm 7 mps 746 mmHg 87%
    22:00 +3°C° 0.1 mm 7 mps 746 mmHg 87%
    23:00 +3°C° 0.1 mm 7 mps 746 mmHg 87%

    20 December, Thursday

    Time Temperature Precipitation Wind Pressure Humidity
    00:00 +4°C° 0.1 mm 7 mps 746 mmHg 86%
    01:00 +4°C° 0.1 mm 7 mps 746 mmHg 88%
    02:00 +4°C° 0.1 mm 6 mps 746 mmHg 89%
    03:00 +4°C° 0.1 mm 6 mps 746 mmHg 91%
    04:00 +3°C° 0 mm 6 mps 747 mmHg 91%
    05:00 +3°C° 0 mm 6 mps 747 mmHg 91%
    06:00 +3°C° 0 mm 6 mps 747 mmHg 91%
    07:00 +3°C° 0 mm 6 mps 747 mmHg 91%
    08:00 +3°C° 0 mm 6 mps 748 mmHg 91%
    09:00 +4°C° 0 mm 6 mps 748 mmHg 91%
    10:00 +4°C° 0 mm 6 mps 748 mmHg 89%
    11:00 +5°C° 0 mm 7 mps 749 mmHg 87%
    12:00 +5°C° 0 mm 7 mps 749 mmHg 86%
    13:00 +5°C° 0 mm 6 mps 749 mmHg 86%
    14:00 +5°C° 0 mm 6 mps 749 mmHg 86%
    15:00 +4°C° 0 mm 6 mps 750 mmHg 87%
    16:00 +4°C° 0 mm 6 mps 750 mmHg 88%
    17:00 +3°C° 0 mm 6 mps 750 mmHg 89%
    18:00 +3°C° 0 mm 6 mps 750 mmHg 90%
    19:00 +3°C° 0 mm 6 mps 749 mmHg 91%
    20:00 +3°C° 0 mm 5 mps 749 mmHg 91%
    21:00 +3°C° 0 mm 5 mps 748 mmHg 92%
    22:00 +3°C° 0.2 mm 6 mps 747 mmHg 91%
    23:00 +3°C° 0.2 mm 6 mps 746 mmHg 91%
    Show more